📊 Raw Sensor Data

Showing records 32576 to 32600 of 84,712 total

ID Distance (ft) Battery V Battery A Int Temp (°F) Int Humid (%) Ext Temp (°F) Solar V RSSI SNR Time Stamp
52149 15.1 4.00 5 71 40 78 5.10 -70 8 09/16/2025 09:00 AM
52148 13.9 4.00 5 69 40 72 5.10 -71 8 09/16/2025 08:45 AM
52147 13.7 4.01 5 66 40 72 5.10 -69 8 09/16/2025 08:30 AM
52146 14.8 4.00 5 64 40 71 5.10 -69 8 09/16/2025 08:15 AM
52145 13.8 4.14 72 62 41 67 4.50 -70 8 09/16/2025 08:00 AM
52144 14.8 4.06 54 59 42 63 4.50 -69 8 09/16/2025 07:45 AM
52143 14.8 4.05 8 57 43 62 4.50 -69 8 09/16/2025 07:30 AM
52142 14.8 3.95 0 55 43 60 4.50 -70 8 09/16/2025 07:15 AM
52141 13.6 3.98 -9 54 44 56 4.50 -69 8 09/16/2025 07:00 AM
52140 14.8 3.98 -8 55 43 57 2.00 -69 8 09/16/2025 06:45 AM
52139 14.8 3.93 -5 54 44 56 0.10 -69 8 09/16/2025 06:30 AM
52138 14.8 3.99 -5 55 43 57 0.00 -69 8 09/16/2025 06:15 AM
52137 14.8 3.94 -5 55 44 58 0.00 -70 8 09/16/2025 06:00 AM
52136 14.8 3.94 -5 54 44 57 0.00 -70 8 09/16/2025 05:45 AM
52135 14.8 3.99 -5 54 44 56 0.00 -70 8 09/16/2025 05:30 AM
52134 14.8 3.94 -5 55 44 57 0.00 -70 8 09/16/2025 05:15 AM
52133 14.8 3.99 -5 55 44 58 0.00 -69 8 09/16/2025 04:45 AM
52132 14.8 3.94 -5 56 44 58 0.10 -69 8 09/16/2025 04:30 AM
52131 14.8 3.94 -5 56 44 58 0.10 -69 8 09/16/2025 04:15 AM
52130 14.8 4.00 -5 56 45 59 0.00 -70 8 09/16/2025 04:00 AM
52129 14.8 3.94 -5 56 44 58 0.00 -70 8 09/16/2025 03:45 AM
52128 14.8 3.94 -5 56 45 58 0.00 -70 6 09/16/2025 03:30 AM
52127 14.8 4.00 -5 57 45 57 0.00 -69 8 09/16/2025 03:15 AM
52126 14.8 3.94 -5 58 44 60 0.10 -69 8 09/16/2025 02:45 AM
52125 14.8 4.00 -5 58 45 61 0.00 -71 8 09/16/2025 02:30 AM